Location: El Bakhil
(32.7726°N, 5.5387°W)
Time: 05:35:51
(UTC+00:00)

Lacrosse 4 Rocket - Pass Details

Date: 03 March 2021
Orbit: 537 x 620 km, 68.0° (Epoch: 12 April)

Event Time Altitude Azimuth Distance (km) Brightness Sun altitude
Rises 20:44:23 0° 231° (SW) 2,802 5.4 -30.8°
Reaches altitude 10° 20:46:53 10° 245° (WSW) 1,921 4.6 -31.3°
Maximum altitude 20:50:30 25° 301° (WNW) 1,217 3.6 -32.0°
Enters shadow 20:51:01 25° 313° (NW) 1,239 3.5 -32.1°
